Lima, OH

11:12 AM EDT on August 28, 2016 (GMT -0400)
Lima Allen County

Weather History for KAOH - October, 2012

Change the Weather History Date:

Monday, October 15, 2012

  Actual Average (KFDY) Record (KFDY)
Temperature  
Mean Temperature 52 °F -  
Max Temperature 55 °F 64 °F 83 °F (1956)
Min Temperature 45 °F 43 °F 30 °F (2006)
Degree Days  
Heating Degree Days 14    
Growing Degree Days 2 (Base 50)    
Moisture  
Dew Point 45 °F    
Average Humidity 78    
Maximum Humidity 89    
Minimum Humidity 64    
Precipitation  
Precipitation 0.02 in - - ()
Sea Level Pressure  
Sea Level Pressure 29.83 in    
Wind  
Wind Speed 14 mph (West)    
Max Wind Speed 22 mph    
Max Gust Speed 37 mph    
Visibility 9 miles    
Events Rain    
Averages and records for this station are not official NWS values.
T = Trace of Precipitation, MM = Missing Value Source: NWS Daily Summary

Daily Weather History Graph

Daily Weather History Graph

Search for Another Location

Airport or City:

Trip Planner

Search our weather history database for the weather conditions in past years. The results will help you decide how hot, cold, wet, or windy it might be!

Date:

Astronomy

Oct. 15, 2012 Rise Set
Actual Time 7:47 AM EDT 6:55 PM EDT
Civil Twilight 7:20 AM EDT 7:22 PM EDT
Nautical Twilight 6:48 AM EDT 7:54 PM EDT
Astronomical Twilight 6:16 AM EDT 8:26 PM EDT
Moon 7:57 AM EDT (10/15) 6:53 PM EDT (10/15)
Length of Visible Light 12h 02m
Length of Day
11h 07m
New Moon, 0% of the Moon is Illuminated
Oct 15
New Moon
Oct 21
First Quarter
Oct 29
Full
Nov 6
Last Quarter
Nov 13
New

Hourly Weather History & Observations

Time (EDT) Temp. Windchill Dew Point Humidity Pressure Visibility Wind Dir Wind Speed Gust Speed Precip Events Conditions
12:53 AM 53.1 °F - 45.0 °F 74% 29.73 in 10.0 mi West 21.9 mph 36.8 mph N/A   Overcast
1:53 AM 53.1 °F - 46.0 °F 77% 29.74 in 10.0 mi West 15.0 mph 23.0 mph N/A   Overcast
2:53 AM 53.1 °F - 46.9 °F 80% 29.75 in 10.0 mi WSW 15.0 mph 23.0 mph N/A   Overcast
3:51 AM 53.6 °F - 46.4 °F 77% 29.75 in 10.0 mi West 17.3 mph 24.2 mph N/A   Overcast
3:53 AM 53.1 °F - 46.0 °F 77% 29.75 in 10.0 mi West 18.4 mph 24.2 mph N/A   Overcast
4:05 AM 53.6 °F - 46.4 °F 77% 29.75 in 10.0 mi WSW 13.8 mph - N/A   Overcast
4:53 AM 52.0 °F - 45.0 °F 77% 29.76 in 10.0 mi West 13.8 mph - N/A   Overcast
5:53 AM 52.0 °F - 45.0 °F 77% 29.77 in 10.0 mi West 9.2 mph - N/A   Overcast
6:20 AM 51.8 °F - 46.4 °F 82% 29.78 in 10.0 mi West 9.2 mph - N/A   Overcast
6:53 AM 51.1 °F - 46.9 °F 86% 29.78 in 10.0 mi WSW 10.4 mph - N/A   Overcast
7:04 AM 51.8 °F - 46.4 °F 82% 29.78 in 10.0 mi WSW 9.2 mph - N/A   Overcast
7:29 AM 51.8 °F - 46.4 °F 82% 29.78 in 10.0 mi West 8.1 mph - N/A   Overcast
7:36 AM 51.8 °F - 46.4 °F 82% 29.78 in 10.0 mi WSW 8.1 mph - N/A   Overcast
7:53 AM 51.1 °F - 46.9 °F 86% 29.78 in 6.0 mi WSW 8.1 mph - 0.00 in Rain Light Rain
8:05 AM 51.8 °F - 48.2 °F 88% 29.79 in 8.0 mi WSW 10.4 mph - 0.00 in   Overcast
8:37 AM 50.0 °F - 46.4 °F 87% 29.80 in 8.0 mi West 11.5 mph - 0.01 in Rain Light Rain
8:53 AM 50.0 °F - 46.9 °F 89% 29.80 in 9.0 mi West 11.5 mph - 0.01 in   Overcast
9:02 AM 50.0 °F - 46.4 °F 87% 29.80 in 4.0 mi West 11.5 mph - N/A   Overcast
9:43 AM 51.8 °F - 46.4 °F 82% 29.81 in 10.0 mi West 9.2 mph - 0.00 in   Overcast
9:53 AM 51.1 °F - 46.9 °F 86% 29.82 in 10.0 mi West 10.4 mph - 0.00 in   Overcast
10:13 AM 51.8 °F - 46.4 °F 82% 29.82 in 10.0 mi WNW 13.8 mph - N/A   Overcast
10:33 AM 50.0 °F - 46.4 °F 87% 29.83 in 5.0 mi West 12.7 mph 21.9 mph 0.00 in Rain Light Rain
10:43 AM 50.0 °F - 46.4 °F 87% 29.83 in 8.0 mi West 12.7 mph 21.9 mph 0.00 in   Overcast
10:51 AM 50.0 °F - 46.4 °F 87% 29.83 in 4.0 mi West 17.3 mph 25.3 mph 0.00 in Rain Light Rain
10:53 AM 50.0 °F - 46.0 °F 86% 29.84 in 3.0 mi West 11.5 mph 25.3 mph 0.01 in Rain Light Rain
11:03 AM 51.8 °F - 46.4 °F 82% 29.84 in 8.0 mi West 13.8 mph 24.2 mph 0.00 in   Overcast
11:28 AM 50.0 °F - 46.4 °F 87% 29.84 in 7.0 mi West 13.8 mph 21.9 mph 0.00 in Rain Light Rain
11:40 AM 50.0 °F - 46.4 °F 87% 29.85 in 6.0 mi WNW 12.7 mph - 0.00 in Rain Light Rain
11:53 AM 51.1 °F - 46.9 °F 86% 29.85 in 10.0 mi West 9.2 mph 20.7 mph 0.00 in   Overcast
12:53 PM 52.0 °F - 46.0 °F 80% 29.86 in 10.0 mi West 13.8 mph - N/A   Overcast
1:01 PM 53.6 °F - 44.6 °F 72% 29.86 in 10.0 mi West 16.1 mph 21.9 mph N/A   Overcast
1:53 PM 54.0 °F - 45.0 °F 72% 29.87 in 10.0 mi West 10.4 mph 20.7 mph N/A   Overcast
2:05 PM 55.4 °F - 44.6 °F 67% 29.86 in 10.0 mi West 12.7 mph - N/A   Overcast
2:51 PM 53.6 °F - 42.8 °F 67% 29.86 in 10.0 mi WNW 12.7 mph 21.9 mph N/A   Overcast
2:53 PM 54.0 °F - 43.0 °F 66% 29.87 in 10.0 mi WNW 15.0 mph 21.9 mph N/A   Overcast
3:53 PM 54.0 °F - 42.1 °F 64% 29.88 in 10.0 mi WNW 15.0 mph 23.0 mph N/A   Overcast
4:53 PM 52.0 °F - 42.1 °F 69% 29.91 in 10.0 mi WNW 13.8 mph - N/A   Overcast
5:53 PM 52.0 °F - 42.1 °F 69% 29.91 in 10.0 mi WNW 11.5 mph 16.1 mph N/A   Overcast
6:53 PM 51.1 °F - 39.9 °F 66% 29.93 in 10.0 mi WNW 10.4 mph - N/A   Overcast
7:53 PM 51.1 °F - 39.9 °F 66% 29.94 in 10.0 mi WNW 6.9 mph - N/A   Overcast
8:53 PM 48.9 °F - 39.0 °F 69% 29.95 in 10.0 mi West 8.1 mph - N/A   Mostly Cloudy
9:53 PM 50.0 °F - 39.0 °F 66% 29.96 in 10.0 mi WNW 5.8 mph - N/A   Overcast
10:53 PM 50.0 °F - 39.0 °F 66% 29.96 in 10.0 mi WNW 9.2 mph - N/A   Overcast
11:53 PM 45.0 °F 41.8 °F 37.9 °F 76% 29.96 in 10.0 mi WNW 5.8 mph - N/A   Clear